Location: Kaltenbach
(49.2000°N, 7.7500°E)
Time: 12:11:56
(UTC+00:00)

Cosmos 2227 Rocket - Pass Details

Date: 24 January 2020
Orbit: 841 x 843 km, 71.0° (Epoch: 16 February)

Event Time Altitude Azimuth Distance (km) Brightness Sun altitude
Rises 19:36:56 0° 257° (WSW) 3,394 6.3 -33.2°
Reaches altitude 10° 19:40:02 10° 274° (W) 2,463 5.4 -33.7°
Maximum altitude 19:44:10 20° 321° (NW) 1,843 4.3 -34.4°
Enters shadow 19:46:15 17° 349° (N) 2,022 4.3 -34.7°
